Weather History for Columbus, OH

Change the Weather History Date:

Thursday, September 26, 2013

  Actual Average Record
Temperature  
Mean Temperature 67 °F 63 °F  
Max Temperature 81 °F 73 °F 92 °F (1998)
Min Temperature 52 °F 52 °F 35 °F (1950)
Degree Days  
Heating Degree Days 0 4  
Month to date heating degree days 49 48  
Since 1 July heating degree days 53 48  
Cooling Degree Days 2 2  
Month to date cooling degree days 128 114  
Year to date cooling degree days 1129 1003  
Growing Degree Days 16 (Base 50)    
Moisture  
Dew Point 48 °F    
Average Humidity 58    
Maximum Humidity 89    
Minimum Humidity 26    
Precipitation  
Precipitation 0.00 in 0.09 in 1.47 in (1890)
Month to date precipitation 2.51 2.49  
Year to date precipitation 29.15 30.18  
Snow  
Snow 0.00 in 0.00 in - ()
Month to date snowfall 0.0 0.0  
Since 1 July snowfall 0.0 0.0  
Since 1 September snowfall 0.0 0.0  
Snow Depth 0.00 in    
Sea Level Pressure  
Sea Level Pressure 30.01 in    
Wind  
Wind Speed 4 mph (NNE)    
Max Wind Speed 13 mph    
Max Gust Speed 16 mph    
Visibility 10 miles    
Events      
T = Trace of Precipitation, MM = Missing Value Source: NWS Daily Summary

Daily Weather History Graph

Daily Weather History Graph

Search for Another Location

Airport:

Trip Planner

Search our weather history database for the weather conditions in past years. The results will help you decide how hot, cold, wet, or windy it might be!

Date:

Astronomy

Sep. 26, 2013 Rise Set
Actual Time 7:23 AM EDT 7:21 PM EDT
Civil Twilight 6:56 AM EDT 7:48 PM EDT
Nautical Twilight 6:24 AM EDT 8:20 PM EDT
Astronomical Twilight 5:52 AM EDT 8:51 PM EDT
Moon No Moon Rise 2:14 PM EDT (9/26)
Length of Visible Light 12h 52m
Length of Day
11h 58m
Waning Gibbous, 55% of the Moon is Illuminated
Sep 26
Waning Gibbous
Sep 26
Last Quarter
Oct 4
New
Oct 11
First Quarter
Oct 18
Full

Hourly Weather History & Observations

Time (EDT) Temp. Dew Point Humidity Pressure Visibility Wind Dir Wind Speed Gust Speed Precip Events Conditions
12:51 AM 57.0 °F 51.1 °F 81% 29.94 in 10.0 mi North 3.5 mph - N/A   Partly Cloudy
1:51 AM 55.9 °F 50.0 °F 80% 29.94 in 10.0 mi Calm Calm - N/A   Scattered Clouds
2:51 AM 57.0 °F 50.0 °F 77% 29.93 in 10.0 mi Calm Calm - N/A   Partly Cloudy
3:51 AM 55.0 °F 50.0 °F 83% 29.94 in 10.0 mi Calm Calm - N/A   Clear
4:51 AM 55.0 °F 50.0 °F 83% 29.94 in 10.0 mi Calm Calm - N/A   Clear
5:51 AM 53.1 °F 48.9 °F 86% 29.96 in 10.0 mi West 3.5 mph - N/A   Clear
6:51 AM 53.1 °F 48.9 °F 86% 29.99 in 10.0 mi Calm Calm - N/A   Partly Cloudy
7:51 AM 54.0 °F 50.0 °F 86% 30.01 in 9.0 mi North 3.5 mph - N/A   Partly Cloudy
8:51 AM 57.0 °F 51.1 °F 81% 30.02 in 10.0 mi North 4.6 mph - N/A   Clear
9:51 AM 63.0 °F 52.0 °F 67% 30.04 in 10.0 mi NNE 3.5 mph - N/A   Clear
10:51 AM 69.1 °F 53.1 °F 57% 30.04 in 10.0 mi Calm Calm - N/A   Clear
11:51 AM 75.0 °F 50.0 °F 41% 30.04 in 10.0 mi ENE 6.9 mph - N/A   Clear
12:51 PM 75.9 °F 46.9 °F 36% 30.03 in 10.0 mi Variable 4.6 mph - N/A   Clear
1:51 PM 78.1 °F 45.0 °F 31% 30.02 in 10.0 mi NE 6.9 mph - N/A   Partly Cloudy
2:51 PM 79.0 °F 44.1 °F 29% 30.01 in 10.0 mi Calm Calm - N/A   Clear
3:51 PM 80.1 °F 43.0 °F 27% 30.00 in 10.0 mi NE 8.1 mph - N/A   Clear
4:51 PM 80.1 °F 43.0 °F 27% 30.01 in 10.0 mi NE 9.2 mph - N/A   Clear
5:51 PM 79.0 °F 41.0 °F 26% 30.02 in 10.0 mi NE 8.1 mph - N/A   Clear
6:51 PM 75.0 °F 44.1 °F 33% 30.03 in 10.0 mi NE 6.9 mph - N/A   Clear
7:51 PM 70.0 °F 46.0 °F 42% 30.04 in 10.0 mi Calm Calm - N/A   Clear
8:51 PM 64.0 °F 48.9 °F 58% 30.06 in 10.0 mi Calm Calm - N/A   Clear
9:51 PM 63.0 °F 48.0 °F 58% 30.08 in 10.0 mi NE 5.8 mph - N/A   Clear
10:51 PM 62.1 °F 46.0 °F 56% 30.09 in 10.0 mi NNE 4.6 mph - N/A   Clear
11:51 PM 60.1 °F 46.0 °F 60% 30.09 in 10.0 mi NE 3.5 mph - N/A   Clear